Location: La Brionne
(46.1728°N, 1.7849°E)
Time: 21:56:57
(UTC+00:00)

Cosmos 1455 Rocket - Pass Details

Date: 16 June 2021
Orbit: 605 x 629 km, 82.5° (Epoch: 02 August)

Event Time Altitude Azimuth Distance (km) Brightness Sun altitude
Rises 20:26:28 0° 360° (N) 2,924 7.2 -6.1°
Reaches altitude 10° 20:28:58 10° 12° (NNE) 2,015 6.2 -6.4°
Maximum altitude 20:32:52 29° 72° (ENE) 1,162 4.2 -6.9°
Drops below altitude 10° 20:36:45 10° 133° (SE) 2,006 5.0 -7.4°
Enters shadow 20:36:55 - 134° (SE) 2,063 5.0 -7.4°
